| time (UTC) | temp F | wind direction | speed MPH | gust MPH | rain 1hr in | rain 24hr in | rain mn in | humidity % | barometer mb |
| 20260906083304 | 65 | 196 | 0.0 | 0.0 | 0.00 | 0.00 | 0.00 | 73 | 1027.8 |
| 20260906082803 | 64 | 202 | 0.0 | 2.0 | 0.00 | 0.00 | 0.00 | 73 | 1027.8 |
| 20260906082306 | 63 | 193 | 0.0 | 0.0 | 0.00 | 0.00 | 0.00 | 75 | 1027.8 |
| 20260906081803 | 63 | 171 | 0.0 | 0.0 | 0.00 | 0.00 | 0.00 | 75 | 1027.8 |
| 20260906081304 | 62 | 171 | 0.0 | 1.0 | 0.00 | 0.00 | 0.00 | 76 | 1027.8 |
| 20260906080804 | 62 | 171 | 0.0 | 0.0 | 0.00 | 0.00 | 0.00 | 76 | 1027.8 |
| 20260906080303 | 61 | 172 | 0.0 | 0.0 | 0.00 | 0.00 | 0.00 | 79 | 1028.2 |
| 20260906075804 | 61 | 172 | 0.0 | 0.0 | 0.00 | 0.00 | 0.00 | 80 | 1028.2 |
| 20260906075306 | 60 | 172 | 0.0 | 0.0 | 0.00 | 0.00 | 0.00 | 80 | 1028.2 |
| 20260906074804 | 60 | 172 | 0.0 | 0.0 | 0.00 | 0.00 | 0.00 | 81 | 1028.2 |
| 20260906074303 | 59 | 171 | 0.0 | 0.0 | 0.00 | 0.00 | 0.00 | 82 | 1028.2 |
| 20260906073803 | 59 | 170 | 0.0 | 0.0 | 0.00 | 0.00 | 0.00 | 81 | 1028.2 |
| 20260906073304 | 59 | 173 | 0.0 | 0.0 | 0.00 | 0.00 | 0.00 | 84 | 1028.1 |
| 20260906072803 | 58 | 173 | 0.0 | 1.0 | 0.00 | 0.00 | 0.00 | 84 | 1028.2 |
| 20260906072306 | 58 | 71 | 0.0 | 0.0 | 0.00 | 0.00 | 0.00 | 86 | 1028.2 |
| 20260906071804 | 57 | 173 | 0.0 | 1.0 | 0.00 | 0.00 | 0.00 | 86 | 1028.2 |
| 20260906071304 | 57 | 70 | 0.0 | 0.0 | 0.00 | 0.00 | 0.00 | 86 | 1028.2 |
| 20260906070803 | 56 | 70 | 0.0 | 0.0 | 0.00 | 0.00 | 0.00 | 86 | 1028.2 |
| 20260906070304 | 56 | 70 | 0.0 | 0.0 | 0.00 | 0.00 | 0.00 | 88 | 1028.2 |
| 20260906065804 | 56 | 136 | 0.0 | 0.0 | 0.00 | 0.00 | 0.00 | 88 | 1028.2 |
| 20260906065305 | 55 | 136 | 0.0 | 0.0 | 0.00 | 0.00 | 0.00 | 90 | 1028.2 |
| 20260906064804 | 55 | 136 | 0.0 | 0.0 | 0.00 | 0.00 | 0.00 | 91 | 1028.2 |
| 20260906064304 | 54 | 136 | 0.0 | 0.0 | 0.00 | 0.00 | 0.00 | 92 | 1028.2 |
| 20260906063804 | 54 | 136 | 0.0 | 0.0 | 0.00 | 0.00 | 0.00 | 93 | 1028.2 |
| 20260906063303 | 53 | 136 | 0.0 | 0.0 | 0.00 | 0.00 | 0.00 | 94 | 1028.2 |
| 20260906062803 | 53 | 136 | 0.0 | 0.0 | 0.00 | 0.00 | 0.00 | 95 | 1028.2 |
| 20260906062306 | 52 | 136 | 0.0 | 0.0 | 0.00 | 0.00 | 0.00 | 96 | 1028.2 |
| 20260906061803 | 52 | 136 | 0.0 | 0.0 | 0.00 | 0.00 | 0.00 | 97 | 1028.2 |
| 20260906060803 | 51 | 38 | 0.0 | 0.0 | 0.00 | 0.00 | 0.00 | 99 | 1028.2 |
| 20260906060304 | 50 | 38 | 0.0 | 0.0 | 0.00 | 0.00 | 0.00 | 99 | 1028.2 |
| 20260906055803 | 50 | 38 | 0.0 | 0.0 | 0.00 | 0.00 | 0.00 | 99 | 1028.2 |
| 20260906055306 | 50 | 304 | 0.0 | 0.0 | 0.00 | 0.00 | 0.00 | 100 | 1028.2 |
| 20260906054803 | 50 | 304 | 0.0 | 0.0 | 0.00 | 0.00 | 0.00 | 100 | 1028.2 |
| 20260906054303 | 49 | 304 | 0.0 | 0.0 | 0.00 | 0.00 | 0.00 | 100 | 1027.8 |
| 20260906053303 | 48 | 304 | 0.0 | 0.0 | 0.00 | 0.00 | 0.00 | 100 | 1027.8 |
| 20260906052803 | 48 | 304 | 0.0 | 0.0 | 0.00 | 0.00 | 0.00 | 100 | 1027.8 |
| 20260906051803 | 48 | 304 | 0.0 | 0.0 | 0.00 | 0.00 | 0.00 | 100 | 1027.8 |
| 20260906051304 | 48 | 304 | 0.0 | 0.0 | 0.00 | 0.00 | 0.00 | 100 | 1027.8 |
| 20260906050803 | 48 | 304 | 0.0 | 0.0 | 0.00 | 0.00 | 0.00 | 100 | 1027.8 |
| 20260906045804 | 48 | 304 | 0.0 | 0.0 | 0.00 | 0.00 | 0.00 | 100 | 1027.8 |
| 20260906044803 | 48 | 304 | 0.0 | 0.0 | 0.00 | 0.00 | 0.00 | 100 | 1027.8 |
| 20260906044303 | 48 | 304 | 0.0 | 0.0 | 0.00 | 0.00 | 0.00 | 100 | 1027.8 |
| 20260906043803 | 48 | 304 | 0.0 | 0.0 | 0.00 | 0.00 | 0.00 | 100 | 1027.8 |
| 20260906042804 | 48 | 304 | 0.0 | 0.0 | 0.00 | 0.00 | 0.00 | 100 | 1027.8 |
| 20260906042306 | 48 | 304 | 0.0 | 0.0 | 0.00 | 0.00 | 0.00 | 100 | 1027.7 |
| 20260906041804 | 48 | 304 | 0.0 | 0.0 | 0.00 | 0.00 | 0.00 | 100 | 1027.7 |
| 20260906041304 | 48 | 304 | 0.0 | 0.0 | 0.00 | 0.00 | 0.00 | 100 | 1027.7 |
| 20260906040804 | 48 | 304 | 0.0 | 0.0 | 0.00 | 0.00 | 0.00 | 100 | 1027.7 |
| 20260906040303 | 48 | 304 | 0.0 | 0.0 | 0.00 | 0.00 | 0.00 | 100 | 1027.7 |
| 20260906035804 | 48 | 304 | 0.0 | 0.0 | 0.00 | 0.00 | 0.00 | 100 | 1027.6 |
| 20260906035306 | 48 | 304 | 0.0 | 0.0 | 0.00 | 0.02 | 0.00 | 100 | 1027.6 |
| 20260906034804 | 48 | 304 | 0.0 | 0.0 | 0.00 | 0.03 | 0.00 | 100 | 1027.6 |
| 20260906034304 | 48 | 304 | 0.0 | 0.0 | 0.00 | 0.05 | 0.00 | 100 | 1027.6 |
| 20260906033804 | 48 | 304 | 0.0 | 0.0 | 0.00 | 0.06 | 0.00 | 100 | 1027.6 |
| 20260906033304 | 48 | 304 | 0.0 | 0.0 | 0.00 | 0.06 | 0.00 | 100 | 1027.6 |
| 20260906032803 | 48 | 304 | 0.0 | 0.0 | 0.00 | 0.07 | 0.00 | 99 | 1027.5 |
| 20260906032306 | 49 | 304 | 0.0 | 0.0 | 0.00 | 0.08 | 0.00 | 99 | 1027.5 |
| 20260906031803 | 49 | 304 | 0.0 | 0.0 | 0.00 | 0.10 | 0.00 | 99 | 1027.5 |
| 20260906031304 | 49 | 304 | 0.0 | 0.0 | 0.00 | 0.13 | 0.00 | 99 | 1027.5 |
| 20260906030804 | 49 | 304 | 0.0 | 0.0 | 0.00 | 0.14 | 0.00 | 99 | 1027.5 |
| 20260906030303 | 49 | 304 | 0.0 | 0.0 | 0.00 | 0.17 | 0.00 | 99 | 1027.5 |
| 20260906024804 | 49 | 304 | 0.0 | 0.0 | 0.00 | 0.24 | 0.00 | 100 | 1027.5 |
| 20260906024304 | 49 | 304 | 0.0 | 0.0 | 0.00 | 0.24 | 0.00 | 99 | 1027.5 |
| 20260906023804 | 49 | 304 | 0.0 | 0.0 | 0.00 | 0.26 | 0.00 | 99 | 1027.3 |
| 20260906023304 | 49 | 304 | 0.0 | 0.0 | 0.00 | 0.33 | 0.00 | 99 | 1027.3 |
| 20260906021803 | 49 | 304 | 0.0 | 0.0 | 0.00 | 0.44 | 0.00 | 99 | 1027.3 |
| 20260906021303 | 49 | 304 | 0.0 | 0.0 | 0.00 | 0.46 | 0.00 | 99 | 1027.3 |
| 20260906020803 | 49 | 304 | 0.0 | 0.0 | 0.00 | 0.49 | 0.00 | 99 | 1027.3 |
| 20260906020304 | 50 | 304 | 0.0 | 0.0 | 0.00 | 0.52 | 0.00 | 99 | 1027.2 |
| 20260906015804 | 50 | 304 | 0.0 | 0.0 | 0.00 | 0.53 | 0.00 | 99 | 1027.2 |
| 20260906015306 | 50 | 304 | 0.0 | 0.0 | 0.00 | 0.53 | 0.00 | 99 | 1027.2 |
| 20260906014804 | 50 | 304 | 0.0 | 0.0 | 0.00 | 0.53 | 0.00 | 98 | 1027.2 |
| 20260906014303 | 50 | 304 | 0.0 | 0.0 | 0.00 | 0.53 | 0.00 | 98 | 1027.2 |
| 20260906013803 | 50 | 304 | 0.0 | 0.0 | 0.00 | 0.53 | 0.00 | 99 | 1027.4 |
| 20260906013305 | 50 | 304 | 0.0 | 0.0 | 0.00 | 0.53 | 0.00 | 98 | 1027.4 |
| 20260906012804 | 50 | 304 | 0.0 | 0.0 | 0.00 | 0.53 | 0.00 | 98 | 1027.4 |
| 20260906012306 | 50 | 304 | 0.0 | 0.0 | 0.00 | 0.53 | 0.00 | 99 | 1027.4 |
| 20260906011803 | 50 | 304 | 0.0 | 0.0 | 0.00 | 0.53 | 0.00 | 99 | 1027.4 |
| 20260906011303 | 50 | 304 | 0.0 | 0.0 | 0.00 | 0.53 | 0.00 | 98 | 1027.4 |
| 20260906010804 | 50 | 304 | 0.0 | 0.0 | 0.00 | 0.53 | 0.00 | 98 | 1027.2 |
| 20260906010304 | 50 | 304 | 0.0 | 0.0 | 0.00 | 0.53 | 0.00 | 98 | 1027.2 |
| 20260906005804 | 51 | 304 | 0.0 | 0.0 | 0.00 | 0.53 | 0.00 | 98 | 1027.2 |
| 20260906005306 | 51 | 304 | 0.0 | 0.0 | 0.00 | 0.53 | 0.00 | 98 | 1027.2 |
| 20260906004804 | 51 | 304 | 0.0 | 0.0 | 0.00 | 0.53 | 0.00 | 98 | 1027.2 |
| 20260906004304 | 51 | 304 | 0.0 | 0.0 | 0.00 | 0.53 | 0.00 | 98 | 1026.7 |
| 20260906003803 | 51 | 304 | 0.0 | 0.0 | 0.00 | 0.53 | 0.00 | 98 | 1026.7 |
| 20260906003304 | 51 | 304 | 0.0 | 0.0 | 0.00 | 0.53 | 0.00 | 97 | 1026.7 |
| 20260906002803 | 51 | 304 | 0.0 | 0.0 | 0.00 | 0.53 | 0.00 | 98 | 1026.7 |
| 20260906001804 | 51 | 304 | 0.0 | 0.0 | 0.00 | 0.53 | 0.00 | 97 | 1026.7 |
| 20260906001303 | 51 | 304 | 0.0 | 0.0 | 0.00 | 0.53 | 0.00 | 97 | 1026.7 |
| 20260906000803 | 51 | 304 | 0.0 | 0.0 | 0.00 | 0.53 | 0.00 | 97 | 1026.7 |
| 20260906000304 | 51 | 304 | 0.0 | 0.0 | 0.00 | 0.53 | 0.00 | 96 | 1026.7 |
| 20260905235804 | 52 | 304 | 0.0 | 0.0 | 0.00 | 0.53 | 0.00 | 97 | 1026.7 |
| 20260905235306 | 52 | 304 | 0.0 | 0.0 | 0.00 | 0.53 | 0.00 | 96 | 1026.7 |
| 20260905234803 | 52 | 304 | 0.0 | 0.0 | 0.00 | 0.53 | 0.00 | 96 | 1026.7 |
| 20260905234304 | 52 | 304 | 0.0 | 0.0 | 0.00 | 0.53 | 0.00 | 96 | 1026.7 |
| 20260905233804 | 52 | 304 | 0.0 | 0.0 | 0.00 | 0.53 | 0.00 | 96 | 1026.7 |
| 20260905233304 | 52 | 304 | 0.0 | 0.0 | 0.00 | 0.53 | 0.00 | 96 | 1026.7 |
| 20260905232804 | 52 | 304 | 0.0 | 0.0 | 0.00 | 0.53 | 0.00 | 96 | 1026.7 |
| 20260905231803 | 53 | 304 | 0.0 | 0.0 | 0.00 | 0.53 | 0.00 | 96 | 1026.7 |
| 20260905231303 | 53 | 304 | 0.0 | 0.0 | 0.00 | 0.53 | 0.00 | 95 | 1026.7 |
| 20260905230803 | 53 | 304 | 0.0 | 0.0 | 0.00 | 0.53 | 0.00 | 95 | 1026.7 |
| 20260905225804 | 53 | 304 | 0.0 | 0.0 | 0.00 | 0.53 | 0.00 | 95 | 1026.5 |
| 20260905225306 | 53 | 304 | 0.0 | 0.0 | 0.00 | 0.53 | 0.00 | 95 | 1026.5 |
| 20260905224804 | 53 | 304 | 0.0 | 0.0 | 0.00 | 0.53 | 0.00 | 94 | 1026.3 |
| 20260905224304 | 53 | 304 | 0.0 | 0.0 | 0.00 | 0.53 | 0.00 | 92 | 1026.3 |
| 20260905223803 | 53 | 304 | 0.0 | 0.0 | 0.00 | 0.53 | 0.00 | 92 | 1026.3 |
| 20260905223303 | 53 | 304 | 0.0 | 0.0 | 0.00 | 0.53 | 0.00 | 91 | 1026.3 |
| 20260905222804 | 53 | 304 | 0.0 | 0.0 | 0.00 | 0.53 | 0.00 | 93 | 1026.2 |
| 20260905222306 | 53 | 304 | 0.0 | 0.0 | 0.00 | 0.53 | 0.00 | 93 | 1026.2 |
| 20260905221804 | 54 | 304 | 0.0 | 0.0 | 0.00 | 0.53 | 0.00 | 93 | 1026.2 |
| 20260905221303 | 54 | 304 | 0.0 | 0.0 | 0.00 | 0.53 | 0.00 | 93 | 1025.9 |
| 20260905220810 | 54 | 304 | 0.0 | 0.0 | 0.00 | 0.53 | 0.00 | 93 | 1025.9 |
| 20260905220304 | 54 | 304 | 0.0 | 0.0 | 0.00 | 0.53 | 0.00 | 93 | 1025.9 |
| 20260905215804 | 54 | 304 | 0.0 | 0.0 | 0.00 | 0.53 | 0.53 | 93 | 1025.9 |
| 20260905215306 | 55 | 304 | 0.0 | 0.0 | 0.00 | 0.53 | 0.53 | 93 | 1025.9 |
| 20260905214303 | 55 | 304 | 0.0 | 0.0 | 0.00 | 0.53 | 0.53 | 91 | 1025.9 |
| 20260905213804 | 55 | 304 | 0.0 | 0.0 | 0.00 | 0.53 | 0.53 | 91 | 1025.9 |
| 20260905213304 | 55 | 304 | 0.0 | 0.0 | 0.00 | 0.53 | 0.53 | 91 | 1025.8 |
| 20260905212803 | 55 | 304 | 0.0 | 0.0 | 0.00 | 0.53 | 0.53 | 91 | 1025.7 |
| 20260905212306 | 55 | 304 | 0.0 | 0.0 | 0.00 | 0.53 | 0.53 | 91 | 1025.5 |
| 20260905211804 | 55 | 304 | 0.0 | 0.0 | 0.00 | 0.53 | 0.53 | 90 | 1025.5 |
| 20260905210304 | 56 | 304 | 0.0 | 0.0 | 0.00 | 0.53 | 0.53 | 89 | 1025.5 |
| 20260905205804 | 56 | 304 | 0.0 | 0.0 | 0.00 | 0.53 | 0.53 | 88 | 1025.5 |
| 20260905205306 | 56 | 304 | 0.0 | 0.0 | 0.00 | 0.53 | 0.53 | 88 | 1025.5 |
| 20260905204304 | 57 | 304 | 0.0 | 0.0 | 0.00 | 0.53 | 0.53 | 86 | 1025.3 |
| 20260905203803 | 57 | 304 | 0.0 | 0.0 | 0.00 | 0.53 | 0.53 | 87 | 1025.3 |
| 20260905203303 | 57 | 304 | 0.0 | 0.0 | 0.00 | 0.53 | 0.53 | 86 | 1025.3 |
| 20260905202803 | 57 | 304 | 0.0 | 0.0 | 0.00 | 0.53 | 0.53 | 86 | 1025.3 |
| 20260905202306 | 57 | 304 | 0.0 | 0.0 | 0.00 | 0.53 | 0.53 | 87 | 1025.1 |
| 20260905201803 | 57 | 304 | 0.0 | 0.0 | 0.00 | 0.53 | 0.53 | 86 | 1025.1 |
| 20260905201303 | 58 | 304 | 0.0 | 0.0 | 0.00 | 0.53 | 0.53 | 85 | 1025.1 |
| 20260905200803 | 58 | 304 | 0.0 | 0.0 | 0.00 | 0.53 | 0.53 | 85 | 1025.1 |
| 20260905200304 | 58 | 304 | 0.0 | 0.0 | 0.00 | 0.53 | 0.53 | 85 | 1025.1 |
| 20260905195804 | 59 | 304 | 0.0 | 0.0 | 0.00 | 0.53 | 0.53 | 85 | 1025.1 |
| 20260905195306 | 59 | 304 | 0.0 | 0.0 | 0.00 | 0.53 | 0.53 | 84 | 1024.9 |
| 20260905194804 | 59 | 304 | 0.0 | 0.0 | 0.00 | 0.53 | 0.53 | 84 | 1024.9 |
| 20260905194303 | 59 | 304 | 0.0 | 0.0 | 0.00 | 0.53 | 0.53 | 82 | 1024.9 |
| 20260905193804 | 60 | 304 | 0.0 | 0.0 | 0.00 | 0.53 | 0.53 | 81 | 1024.9 |
| 20260905193304 | 60 | 304 | 0.0 | 0.0 | 0.00 | 0.53 | 0.53 | 82 | 1024.6 |
| 20260905192306 | 61 | 304 | 0.0 | 0.0 | 0.00 | 0.53 | 0.53 | 80 | 1024.6 |
| 20260905191804 | 61 | 304 | 0.0 | 0.0 | 0.00 | 0.53 | 0.53 | 79 | 1024.6 |
| 20260905191304 | 62 | 304 | 0.0 | 0.0 | 0.00 | 0.53 | 0.53 | 78 | 1024.6 |
| 20260905190803 | 62 | 304 | 0.0 | 0.0 | 0.00 | 0.53 | 0.53 | 76 | 1024.6 |
| 20260905190303 | 62 | 304 | 0.0 | 0.0 | 0.00 | 0.53 | 0.53 | 75 | 1024.6 |
| 20260905185804 | 63 | 304 | 0.0 | 0.0 | 0.00 | 0.53 | 0.53 | 74 | 1024.2 |
| 20260905185306 | 63 | 304 | 0.0 | 0.0 | 0.00 | 0.53 | 0.53 | 73 | 1024.2 |
| 20260905184804 | 64 | 304 | 0.0 | 0.0 | 0.00 | 0.53 | 0.53 | 72 | 1024.2 |
| 20260905184304 | 64 | 304 | 0.0 | 0.0 | 0.00 | 0.53 | 0.53 | 73 | 1024.2 |
| 20260905183804 | 64 | 304 | 0.0 | 0.0 | 0.00 | 0.53 | 0.53 | 70 | 1024.2 |
| 20260905183304 | 65 | 304 | 0.0 | 0.0 | 0.00 | 0.53 | 0.53 | 70 | 1024.2 |
| 20260905182804 | 65 | 304 | 0.0 | 0.0 | 0.00 | 0.53 | 0.53 | 66 | 1023.7 |
| 20260905182305 | 66 | 304 | 0.0 | 0.0 | 0.00 | 0.53 | 0.53 | 64 | 1023.7 |
| 20260905181304 | 68 | 304 | 0.0 | 0.0 | 0.00 | 0.53 | 0.53 | 61 | 1023.7 |
| 20260905180804 | 69 | 304 | 0.0 | 0.0 | 0.00 | 0.53 | 0.53 | 57 | 1023.7 |
| 20260905180303 | 70 | 304 | 0.0 | 0.0 | 0.00 | 0.53 | 0.53 | 55 | 1023.7 |
| 20260905175306 | 71 | 305 | 0.0 | 0.0 | 0.00 | 0.53 | 0.53 | 53 | 1023.7 |
| 20260905174803 | 72 | 286 | 0.0 | 3.0 | 0.00 | 0.53 | 0.53 | 53 | 1023.7 |
| 20260905174304 | 72 | 277 | 0.0 | 2.0 | 0.00 | 0.53 | 0.53 | 52 | 1023.7 |
| 20260905173804 | 72 | 270 | 0.0 | 1.0 | 0.00 | 0.53 | 0.53 | 51 | 1023.7 |
| 20260905173304 | 72 | 310 | 0.0 | 5.0 | 0.00 | 0.53 | 0.53 | 51 | 1023.6 |
| 20260905172803 | 73 | 321 | 0.0 | 1.0 | 0.00 | 0.53 | 0.53 | 51 | 1023.6 |
| 20260905172305 | 73 | 2 | 0.0 | 1.0 | 0.00 | 0.53 | 0.53 | 52 | 1023.5 |
| 20260905171803 | 73 | 267 | 0.0 | 1.0 | 0.00 | 0.53 | 0.53 | 50 | 1023.5 |
| 20260905171303 | 73 | 177 | 0.0 | 1.0 | 0.00 | 0.53 | 0.53 | 50 | 1023.4 |
| 20260905170803 | 74 | 275 | 0.0 | 2.0 | 0.00 | 0.53 | 0.53 | 49 | 1023.4 |
| 20260905170304 | 74 | 326 | 2.0 | 8.0 | 0.00 | 0.53 | 0.53 | 48 | 1023.4 |
| 20260905165804 | 74 | 263 | 0.0 | 1.0 | 0.00 | 0.53 | 0.53 | 49 | 1023.0 |
| 20260905165306 | 75 | 297 | 0.0 | 2.0 | 0.00 | 0.53 | 0.53 | 48 | 1023.0 |
| 20260905164804 | 75 | 295 | 1.0 | 6.0 | 0.00 | 0.53 | 0.53 | 47 | 1023.0 |
| 20260905164304 | 76 | 9 | 2.0 | 7.0 | 0.00 | 0.53 | 0.53 | 46 | 1023.0 |
| 20260905163803 | 77 | 6 | 1.0 | 3.0 | 0.00 | 0.53 | 0.53 | 44 | 1023.0 |
| 20260905163304 | 78 | 291 | 1.0 | 5.0 | 0.00 | 0.53 | 0.53 | 44 | 1023.0 |
| 20260905162804 | 78 | 272 | 1.0 | 3.0 | 0.00 | 0.53 | 0.53 | 45 | 1023.0 |
| 20260905162306 | 78 | 334 | 1.0 | 5.0 | 0.00 | 0.53 | 0.53 | 44 | 1023.0 |
| 20260905161804 | 78 | 289 | 1.0 | 7.0 | 0.00 | 0.53 | 0.53 | 43 | 1023.0 |
| 20260905161304 | 78 | 286 | 1.0 | 5.0 | 0.00 | 0.53 | 0.53 | 43 | 1023.0 |
| 20260905160803 | 79 | 353 | 2.0 | 7.0 | 0.00 | 0.53 | 0.53 | 43 | 1023.0 |
| 20260905160304 | 79 | 301 | 2.0 | 7.0 | 0.00 | 0.53 | 0.53 | 41 | 1022.8 |
| 20260905155804 | 79 | 317 | 0.0 | 3.0 | 0.00 | 0.53 | 0.53 | 42 | 1022.8 |
| 20260905155306 | 79 | 304 | 1.0 | 7.0 | 0.00 | 0.53 | 0.53 | 41 | 1022.8 |
| 20260905154804 | 80 | 316 | 0.0 | 3.0 | 0.00 | 0.53 | 0.53 | 42 | 1022.8 |
| 20260905154303 | 80 | 261 | 0.0 | 5.0 | 0.00 | 0.53 | 0.53 | 41 | 1022.8 |
| 20260905153803 | 80 | 283 | 1.0 | 5.0 | 0.00 | 0.53 | 0.53 | 40 | 1022.8 |
| 20260905153304 | 80 | 264 | 0.0 | 6.0 | 0.00 | 0.53 | 0.53 | 41 | 1022.8 |
| 20260905152804 | 80 | 340 | 1.0 | 5.0 | 0.00 | 0.53 | 0.53 | 41 | 1022.6 |
| 20260905152306 | 80 | 301 | 1.0 | 7.0 | 0.00 | 0.53 | 0.53 | 42 | 1022.6 |
| 20260905151804 | 80 | 291 | 2.0 | 5.0 | 0.00 | 0.53 | 0.53 | 42 | 1022.6 |
| 20260905150804 | 81 | 353 | 2.0 | 5.0 | 0.00 | 0.53 | 0.53 | 43 | 1022.6 |
| 20260905150304 | 81 | 306 | 2.0 | 5.0 | 0.00 | 0.53 | 0.53 | 42 | 1022.6 |
| 20260905145804 | 81 | 291 | 2.0 | 6.0 | 0.00 | 0.53 | 0.53 | 43 | 1022.6 |
| 20260905145306 | 82 | 280 | 2.0 | 5.0 | 0.00 | 0.53 | 0.53 | 44 | 1022.5 |
| 20260905144303 | 81 | 256 | 1.0 | 5.0 | 0.00 | 0.53 | 0.53 | 44 | 1022.5 |
| 20260905143803 | 80 | 293 | 2.0 | 9.0 | 0.00 | 0.53 | 0.53 | 43 | 1022.5 |
| 20260905143304 | 81 | 263 | 3.0 | 9.0 | 0.00 | 0.53 | 0.53 | 43 | 1022.5 |
| 20260905142803 | 81 | 310 | 2.0 | 8.0 | 0.00 | 0.53 | 0.53 | 44 | 1022.6 |
| 20260905142305 | 81 | 290 | 1.0 | 8.0 | 0.00 | 0.53 | 0.53 | 45 | 1022.6 |
| 20260905141803 | 81 | 312 | 1.0 | 6.0 | 0.00 | 0.53 | 0.53 | 46 | 1022.6 |
| 20260905141304 | 81 | 259 | 2.0 | 8.0 | 0.00 | 0.53 | 0.53 | 47 | 1022.6 |
| 20260905140803 | 81 | 282 | 1.0 | 10.0 | 0.00 | 0.53 | 0.53 | 45 | 1022.6 |
| 20260905140304 | 81 | 284 | 2.0 | 6.0 | 0.00 | 0.53 | 0.53 | 44 | 1022.5 |
| 20260905135306 | 81 | 309 | 1.0 | 5.0 | 0.00 | 0.53 | 0.53 | 47 | 1022.5 |
| 20260905134804 | 81 | 308 | 0.0 | 10.0 | 0.00 | 0.53 | 0.53 | 48 | 1022.6 |
| 20260905134304 | 80 | 312 | 0.0 | 8.0 | 0.00 | 0.53 | 0.53 | 49 | 1022.6 |
| 20260905133803 | 80 | 284 | 2.0 | 8.0 | 0.00 | 0.53 | 0.53 | 47 | 1022.6 |
| 20260905133303 | 80 | 352 | 1.0 | 5.0 | 0.00 | 0.53 | 0.53 | 49 | 1022.7 |
| 20260905132803 | 80 | 290 | 1.0 | 3.0 | 0.00 | 0.53 | 0.53 | 49 | 1022.7 |
| 20260905132305 | 80 | 281 | 1.0 | 8.0 | 0.00 | 0.53 | 0.53 | 49 | 1022.7 |
| 20260905131804 | 80 | 289 | 1.0 | 6.0 | 0.00 | 0.53 | 0.53 | 50 | 1022.7 |
| 20260905131303 | 80 | 309 | 1.0 | 6.0 | 0.00 | 0.53 | 0.53 | 52 | 1022.7 |
| 20260905130803 | 80 | 300 | 1.0 | 5.0 | 0.00 | 0.53 | 0.53 | 53 | 1022.8 |
| 20260905130303 | 79 | 328 | 0.0 | 6.0 | 0.00 | 0.53 | 0.53 | 52 | 1022.8 |
| 20260905124804 | 78 | 304 | 2.0 | 5.0 | 0.00 | 0.53 | 0.53 | 54 | 1022.8 |
| 20260905124304 | 78 | 301 | 2.0 | 8.0 | 0.00 | 0.53 | 0.53 | 54 | 1022.8 |
| 20260905123804 | 79 | 277 | 1.0 | 5.0 | 0.00 | 0.53 | 0.53 | 56 | 1022.8 |
| 20260905123304 | 78 | 280 | 1.0 | 5.0 | 0.00 | 0.53 | 0.53 | 55 | 1022.8 |
| 20260905122804 | 78 | 4 | 1.0 | 9.0 | 0.00 | 0.53 | 0.53 | 55 | 1022.8 |
| 20260905121803 | 78 | 312 | 0.0 | 8.0 | 0.00 | 0.53 | 0.53 | 58 | 1022.7 |
| 20260905121304 | 78 | 343 | 2.0 | 5.0 | 0.00 | 0.53 | 0.53 | 53 | 1022.8 |
| 20260905120804 | 78 | 274 | 1.0 | 5.0 | 0.00 | 0.53 | 0.53 | 55 | 1022.8 |
| 20260905120304 | 78 | 274 | 0.0 | 3.0 | 0.00 | 0.53 | 0.53 | 54 | 1022.8 |
| 20260905115805 | 78 | 311 | 1.0 | 3.0 | 0.00 | 0.53 | 0.53 | 54 | 1022.8 |
| 20260905114304 | 78 | 328 | 1.0 | 3.0 | 0.00 | 0.53 | 0.53 | 56 | 1022.8 |
| 20260905113804 | 78 | 261 | 1.0 | 13.0 | 0.00 | 0.53 | 0.53 | 54 | 1022.8 |
| 20260905113304 | 77 | 259 | 0.0 | 3.0 | 0.00 | 0.53 | 0.53 | 58 | 1023.0 |
| 20260905112803 | 76 | 263 | 0.0 | 3.0 | 0.00 | 0.53 | 0.53 | 58 | 1023.0 |
| 20260905112305 | 76 | 241 | 0.0 | 2.0 | 0.00 | 0.53 | 0.53 | 58 | 1023.0 |
| 20260905111804 | 77 | 37 | 0.0 | 3.0 | 0.00 | 0.53 | 0.53 | 58 | 1023.0 |
| 20260905111304 | 77 | 242 | 2.0 | 6.0 | 0.00 | 0.53 | 0.53 | 58 | 1023.1 |
| 20260905110803 | 77 | 220 | 0.0 | 7.0 | 0.00 | 0.53 | 0.53 | 60 | 1023.1 |
| 20260905105804 | 78 | 279 | 1.0 | 5.0 | 0.00 | 0.53 | 0.53 | 61 | 1023.1 |
| 20260905105306 | 77 | 294 | 1.0 | 5.0 | 0.00 | 0.53 | 0.53 | 61 | 1023.1 |
| 20260905104804 | 77 | 1 | 1.0 | 9.0 | 0.00 | 0.53 | 0.53 | 61 | 1023.1 |
| 20260905104304 | 76 | 287 | 1.0 | 3.0 | 0.00 | 0.53 | 0.53 | 62 | 1023.0 |
| 20260905103803 | 76 | 344 | 1.0 | 6.0 | 0.00 | 0.53 | 0.53 | 63 | 1023.0 |
| 20260905102804 | 75 | 312 | 1.0 | 3.0 | 0.00 | 0.53 | 0.53 | 65 | 1023.1 |
| 20260905102306 | 73 | 323 | 1.0 | 5.0 | 0.00 | 0.53 | 0.53 | 67 | 1023.1 |
| 20260905101803 | 72 | 288 | 0.0 | 2.0 | 0.00 | 0.53 | 0.53 | 68 | 1023.1 |
| 20260905101304 | 73 | 292 | 0.0 | 5.0 | 0.00 | 0.53 | 0.53 | 67 | 1023.1 |
| 20260905100804 | 74 | 0 | 0.0 | 2.0 | 0.00 | 0.53 | 0.53 | 70 | 1023.1 |
| 20260905100303 | 74 | 287 | 0.0 | 5.0 | 0.00 | 0.53 | 0.53 | 69 | 1023.1 |
| 20260905095305 | 73 | 177 | 0.0 | 3.0 | 0.00 | 0.53 | 0.53 | 73 | 1023.1 |
| 20260905094803 | 72 | 32 | 1.0 | 3.0 | 0.00 | 0.53 | 0.53 | 72 | 1023.0 |
| 20260905094304 | 72 | 310 | 0.0 | 2.0 | 0.00 | 0.53 | 0.53 | 74 | 1023.0 |
| 20260905093804 | 72 | 5 | 0.0 | 6.0 | 0.00 | 0.53 | 0.53 | 73 | 1023.1 |
| 20260905093303 | 71 | 293 | 0.0 | 2.0 | 0.00 | 0.53 | 0.53 | 75 | 1022.4 |
| 20260905092804 | 72 | 259 | 0.0 | 2.0 | 0.00 | 0.53 | 0.53 | 74 | 1022.4 |
| 20260905091803 | 72 | 314 | 0.0 | 3.0 | 0.00 | 0.53 | 0.53 | 74 | 1022.4 |
| 20260905091305 | 71 | 211 | 0.0 | 1.0 | 0.00 | 0.53 | 0.53 | 76 | 1022.4 |
| 20260905090803 | 70 | 326 | 0.0 | 1.0 | 0.00 | 0.53 | 0.53 | 77 | 1022.4 |
| 20260905085804 | 70 | 277 | 0.0 | 3.0 | 0.00 | 0.53 | 0.53 | 80 | 1022.4 |
| 20260905085306 | 69 | 293 | 0.0 | 3.0 | 0.00 | 0.53 | 0.53 | 80 | 1022.4 |
| 20260905084804 | 69 | 252 | 0.0 | 1.0 | 0.00 | 0.53 | 0.53 | 82 | 1022.4 |
| 20260905084304 | 69 | 275 | 0.0 | 5.0 | 0.00 | 0.53 | 0.53 | 83 | 1022.4 |
| 20260905083804 | 69 | 323 | 0.0 | 1.0 | 0.00 | 0.53 | 0.53 | 84 | 1022.4 |